| time (UTC) | temp F | wind direction | speed MPH | gust MPH | rain 1hr in | rain 24hr in | rain mn in | humidity % | barometer mb |
| 20260902002601 | 99 | 222 | 0.0 | 5.0 | 0.00 | 0.00 | 0.00 | 36 | 1011.8 |
| 20260902002058 | 99 | 202 | 3.0 | 6.0 | 0.00 | 0.00 | 0.00 | 36 | 1011.8 |
| 20260902001605 | 99 | 160 | 1.0 | 6.0 | 0.00 | 0.00 | 0.00 | 36 | 1011.8 |
| 20260902001059 | 99 | 169 | 2.0 | 7.0 | 0.00 | 0.00 | 0.00 | 36 | 1011.9 |
| 20260902000558 | 100 | 184 | 3.0 | 7.0 | 0.00 | 0.00 | 0.00 | 35 | 1011.9 |
| 20260902000105 | 100 | 0 | 3.0 | 7.0 | 0.00 | 0.00 | 0.00 | 35 | 1011.8 |
| 20260901235558 | 100 | 226 | 4.0 | 8.0 | 0.00 | 0.00 | 0.00 | 36 | 1011.9 |
| 20260901235059 | 101 | 110 | 2.0 | 8.0 | 0.00 | 0.00 | 0.00 | 35 | 1011.9 |
| 20260901234609 | 101 | 181 | 3.0 | 8.0 | 0.00 | 0.00 | 0.00 | 36 | 1012.0 |
| 20260901234104 | 100 | 211 | 3.0 | 8.0 | 0.00 | 0.00 | 0.00 | 36 | 1012.0 |
| 20260901233559 | 101 | 189 | 5.0 | 8.0 | 0.00 | 0.00 | 0.00 | 36 | 1012.1 |
| 20260901233105 | 101 | 194 | 2.0 | 6.0 | 0.00 | 0.00 | 0.00 | 36 | 1012.1 |
| 20260901232558 | 100 | 0 | 1.0 | 4.0 | 0.00 | 0.00 | 0.00 | 37 | 1012.1 |
| 20260901232102 | 100 | 131 | 2.0 | 8.0 | 0.00 | 0.00 | 0.00 | 38 | 1012.1 |
| 20260901231616 | 100 | 96 | 2.0 | 8.0 | 0.00 | 0.00 | 0.00 | 37 | 1012.3 |
| 20260901231058 | 100 | 212 | 3.0 | 7.0 | 0.00 | 0.00 | 0.00 | 37 | 1012.2 |
| 20260901230558 | 99 | 165 | 1.0 | 7.0 | 0.00 | 0.00 | 0.00 | 38 | 1012.3 |
| 20260901230110 | 99 | 134 | 3.0 | 8.0 | 0.00 | 0.00 | 0.00 | 39 | 1012.3 |
| 20260901225558 | 98 | 176 | 3.0 | 8.0 | 0.00 | 0.00 | 0.00 | 39 | 1012.4 |
| 20260901225059 | 98 | 113 | 1.0 | 4.0 | 0.00 | 0.00 | 0.00 | 39 | 1012.5 |
| 20260901224605 | 98 | 105 | 1.0 | 4.0 | 0.00 | 0.00 | 0.00 | 40 | 1012.5 |
| 20260901224100 | 98 | 59 | 1.0 | 5.0 | 0.00 | 0.00 | 0.00 | 39 | 1012.5 |
| 20260901223604 | 99 | 58 | 2.0 | 10.0 | 0.00 | 0.00 | 0.00 | 39 | 1012.6 |
| 20260901223106 | 99 | 122 | 4.0 | 10.0 | 0.00 | 0.00 | 0.00 | 39 | 1012.7 |
| 20260901222602 | 99 | 72 | 4.0 | 9.0 | 0.00 | 0.00 | 0.00 | 39 | 1012.7 |
| 20260901222058 | 100 | 203 | 4.0 | 8.0 | 0.00 | 0.00 | 0.00 | 39 | 1012.7 |
| 20260901221612 | 99 | 197 | 2.0 | 10.0 | 0.00 | 0.00 | 0.00 | 40 | 1012.8 |
| 20260901221059 | 98 | 94 | 5.0 | 10.0 | 0.00 | 0.00 | 0.00 | 41 | 1012.9 |
| 20260901220603 | 98 | 115 | 5.0 | 9.0 | 0.00 | 0.00 | 0.00 | 40 | 1012.9 |
| 20260901220104 | 99 | 163 | 5.0 | 9.0 | 0.00 | 0.00 | 0.00 | 39 | 1013.0 |
| 20260901215559 | 100 | 99 | 5.0 | 9.0 | 0.00 | 0.00 | 0.00 | 38 | 1013.1 |
| 20260901215058 | 99 | 309 | 1.0 | 5.0 | 0.00 | 0.00 | 0.00 | 39 | 1013.2 |
| 20260901214623 | 100 | 84 | 1.0 | 8.0 | 0.00 | 0.00 | 0.00 | 38 | 1013.2 |
| 20260901214058 | 100 | 156 | 3.0 | 10.0 | 0.00 | 0.00 | 0.00 | 38 | 1013.4 |
| 20260901213558 | 99 | 143 | 5.0 | 10.0 | 0.00 | 0.00 | 0.00 | 39 | 1013.5 |
| 20260901213107 | 97 | 134 | 4.0 | 9.0 | 0.00 | 0.00 | 0.00 | 41 | 1013.5 |
| 20260901212558 | 97 | 0 | 3.0 | 7.0 | 0.00 | 0.00 | 0.00 | 41 | 1013.6 |
| 20260901212058 | 98 | 86 | 3.0 | 7.0 | 0.00 | 0.00 | 0.00 | 41 | 1013.7 |
| 20260901211603 | 98 | 100 | 3.0 | 9.0 | 0.00 | 0.00 | 0.00 | 41 | 1013.7 |
| 20260901211059 | 97 | 115 | 5.0 | 9.0 | 0.00 | 0.00 | 0.00 | 42 | 1013.9 |
| 20260901210600 | 98 | 144 | 3.0 | 10.0 | 0.00 | 0.00 | 0.00 | 43 | 1013.9 |
| 20260901205559 | 96 | 126 | 5.0 | 9.0 | 0.00 | 0.00 | 0.00 | 42 | 1014.0 |
| 20260901205058 | 96 | 158 | 2.0 | 7.0 | 0.00 | 0.00 | 0.00 | 43 | 1014.2 |
| 20260901204607 | 97 | 86 | 4.0 | 7.0 | 0.00 | 0.00 | 0.00 | 42 | 1014.2 |
| 20260901204058 | 97 | 118 | 2.0 | 6.0 | 0.00 | 0.00 | 0.00 | 42 | 1014.3 |
| 20260901203602 | 97 | 147 | 3.0 | 10.0 | 0.00 | 0.00 | 0.00 | 43 | 1014.4 |
| 20260901203102 | 98 | 226 | 5.0 | 10.0 | 0.00 | 0.00 | 0.00 | 43 | 1014.4 |
| 20260901202600 | 96 | 167 | 4.0 | 13.0 | 0.00 | 0.00 | 0.00 | 44 | 1014.5 |
| 20260901202058 | 96 | 77 | 6.0 | 13.0 | 0.00 | 0.00 | 0.00 | 42 | 1014.6 |
| 20260901201601 | 98 | 131 | 2.0 | 9.0 | 0.00 | 0.00 | 0.00 | 41 | 1014.7 |
| 20260901201059 | 97 | 270 | 4.0 | 12.0 | 0.00 | 0.00 | 0.00 | 42 | 1014.7 |
| 20260901200559 | 97 | 129 | 6.0 | 12.0 | 0.00 | 0.00 | 0.00 | 43 | 1014.7 |
| 20260901195559 | 96 | 113 | 1.0 | 11.0 | 0.00 | 0.00 | 0.00 | 44 | 1015.0 |
| 20260901195059 | 95 | 114 | 3.0 | 11.0 | 0.00 | 0.00 | 0.00 | 45 | 1015.0 |
| 20260901194606 | 95 | 134 | 3.0 | 11.0 | 0.00 | 0.00 | 0.00 | 45 | 1015.1 |
| 20260901194058 | 95 | 115 | 4.0 | 11.0 | 0.00 | 0.00 | 0.00 | 45 | 1015.1 |
| 20260901193558 | 96 | 146 | 4.0 | 7.0 | 0.00 | 0.00 | 0.00 | 43 | 1015.1 |
| 20260901193104 | 96 | 114 | 3.0 | 7.0 | 0.00 | 0.00 | 0.00 | 44 | 1015.2 |
| 20260901192559 | 96 | 136 | 3.0 | 7.0 | 0.00 | 0.00 | 0.00 | 44 | 1015.3 |
| 20260901192059 | 95 | 146 | 2.0 | 6.0 | 0.00 | 0.00 | 0.00 | 45 | 1015.3 |
| 20260901191608 | 95 | 133 | 3.0 | 6.0 | 0.00 | 0.00 | 0.00 | 45 | 1015.4 |
| 20260901191059 | 95 | 102 | 1.0 | 7.0 | 0.00 | 0.00 | 0.00 | 45 | 1015.5 |
| 20260901190558 | 95 | 46 | 2.0 | 7.0 | 0.00 | 0.00 | 0.00 | 44 | 1015.6 |
| 20260901190104 | 95 | 110 | 4.0 | 7.0 | 0.00 | 0.00 | 0.00 | 45 | 1015.8 |
| 20260901185559 | 95 | 152 | 1.0 | 5.0 | 0.00 | 0.00 | 0.00 | 45 | 1015.8 |
| 20260901185103 | 94 | 238 | 2.0 | 7.0 | 0.00 | 0.00 | 0.00 | 47 | 1015.8 |
| 20260901184606 | 93 | 148 | 3.0 | 7.0 | 0.00 | 0.00 | 0.00 | 47 | 1015.9 |
| 20260901184102 | 93 | 120 | 3.0 | 6.0 | 0.00 | 0.00 | 0.00 | 47 | 1015.9 |
| 20260901183558 | 93 | 150 | 3.0 | 6.0 | 0.00 | 0.00 | 0.00 | 48 | 1016.0 |
| 20260901183121 | 93 | 0 | 2.0 | 8.0 | 0.00 | 0.00 | 0.00 | 47 | 1016.1 |
| 20260901182600 | 92 | 103 | 3.0 | 8.0 | 0.00 | 0.00 | 0.00 | 49 | 1016.1 |
| 20260901182059 | 92 | 104 | 4.0 | 8.0 | 0.00 | 0.00 | 0.00 | 48 | 1016.2 |
| 20260901181604 | 91 | 117 | 1.0 | 7.0 | 0.00 | 0.00 | 0.00 | 50 | 1016.2 |
| 20260901181058 | 91 | 120 | 3.0 | 9.0 | 0.00 | 0.00 | 0.00 | 49 | 1016.2 |
| 20260901180558 | 91 | 139 | 4.0 | 9.0 | 0.00 | 0.00 | 0.00 | 49 | 1016.3 |
| 20260901180105 | 91 | 122 | 3.0 | 8.0 | 0.00 | 0.00 | 0.00 | 49 | 1016.3 |
| 20260901175559 | 91 | 126 | 4.0 | 8.0 | 0.00 | 0.00 | 0.00 | 48 | 1016.4 |
| 20260901175058 | 91 | 148 | 4.0 | 8.0 | 0.00 | 0.00 | 0.00 | 50 | 1016.4 |
| 20260901174601 | 91 | 136 | 2.0 | 8.0 | 0.00 | 0.00 | 0.00 | 50 | 1016.6 |
| 20260901174059 | 91 | 218 | 3.0 | 8.0 | 0.00 | 0.00 | 0.00 | 51 | 1016.6 |
| 20260901173601 | 90 | 147 | 2.0 | 10.0 | 0.00 | 0.00 | 0.00 | 50 | 1016.6 |
| 20260901173155 | 90 | 69 | 3.0 | 10.0 | 0.00 | 0.00 | 0.00 | 51 | 1016.6 |
| 20260901172559 | 90 | 113 | 3.0 | 8.0 | 0.00 | 0.00 | 0.00 | 51 | 1016.7 |
| 20260901172059 | 90 | 139 | 4.0 | 8.0 | 0.00 | 0.00 | 0.00 | 50 | 1016.7 |
| 20260901171625 | 91 | 110 | 3.0 | 7.0 | 0.00 | 0.00 | 0.00 | 50 | 1016.6 |
| 20260901171058 | 90 | 108 | 1.0 | 7.0 | 0.00 | 0.00 | 0.00 | 51 | 1016.6 |
| 20260901170558 | 90 | 152 | 2.0 | 9.0 | 0.00 | 0.00 | 0.00 | 51 | 1016.7 |
| 20260901170114 | 90 | 112 | 4.0 | 9.0 | 0.00 | 0.00 | 0.00 | 51 | 1016.5 |
| 20260901165601 | 90 | 95 | 4.0 | 9.0 | 0.00 | 0.00 | 0.00 | 51 | 1016.5 |
| 20260901165058 | 90 | 165 | 3.0 | 8.0 | 0.00 | 0.00 | 0.00 | 51 | 1016.4 |
| 20260901164622 | 89 | 104 | 3.0 | 8.0 | 0.00 | 0.00 | 0.00 | 53 | 1016.5 |
| 20260901164059 | 89 | 109 | 2.0 | 8.0 | 0.00 | 0.00 | 0.00 | 52 | 1016.5 |
| 20260901163558 | 89 | 134 | 2.0 | 6.0 | 0.00 | 0.00 | 0.00 | 52 | 1016.5 |
| 20260901163119 | 88 | 106 | 2.0 | 6.0 | 0.00 | 0.00 | 0.00 | 52 | 1016.4 |
| 20260901162600 | 88 | 69 | 2.0 | 7.0 | 0.00 | 0.00 | 0.00 | 52 | 1016.4 |
| 20260901162058 | 88 | 127 | 2.0 | 7.0 | 0.00 | 0.00 | 0.00 | 53 | 1016.3 |
| 20260901161620 | 87 | 127 | 1.0 | 5.0 | 0.00 | 0.00 | 0.00 | 54 | 1016.3 |
| 20260901161059 | 87 | 134 | 1.0 | 6.0 | 0.00 | 0.00 | 0.00 | 54 | 1016.3 |
| 20260901160558 | 87 | 106 | 3.0 | 6.0 | 0.00 | 0.00 | 0.00 | 54 | 1016.3 |
| 20260901160104 | 87 | 131 | 2.0 | 6.0 | 0.00 | 0.00 | 0.00 | 54 | 1016.3 |
| 20260901155601 | 87 | 105 | 3.0 | 6.0 | 0.00 | 0.00 | 0.00 | 55 | 1016.3 |
| 20260901155100 | 87 | 61 | 2.0 | 5.0 | 0.00 | 0.00 | 0.00 | 55 | 1016.2 |
| 20260901154606 | 86 | 84 | 3.0 | 6.0 | 0.00 | 0.00 | 0.00 | 55 | 1016.2 |
| 20260901154059 | 86 | 84 | 2.0 | 6.0 | 0.00 | 0.00 | 0.00 | 55 | 1016.2 |
| 20260901153558 | 86 | 68 | 2.0 | 5.0 | 0.00 | 0.00 | 0.00 | 55 | 1016.1 |
| 20260901153103 | 86 | 85 | 2.0 | 5.0 | 0.00 | 0.00 | 0.00 | 56 | 1016.1 |
| 20260901152558 | 86 | 84 | 2.0 | 6.0 | 0.00 | 0.00 | 0.00 | 57 | 1016.1 |
| 20260901152058 | 86 | 79 | 1.0 | 6.0 | 0.00 | 0.00 | 0.00 | 58 | 1016.0 |
| 20260901151607 | 86 | 38 | 1.0 | 5.0 | 0.00 | 0.00 | 0.00 | 58 | 1016.0 |
| 20260901151101 | 85 | 0 | 1.0 | 5.0 | 0.00 | 0.00 | 0.00 | 59 | 1016.0 |
| 20260901150557 | 85 | 49 | 2.0 | 5.0 | 0.00 | 0.00 | 0.00 | 59 | 1015.9 |
| 20260901150118 | 84 | 27 | 1.0 | 4.0 | 0.00 | 0.00 | 0.00 | 60 | 1015.9 |
| 20260901145600 | 84 | 61 | 1.0 | 4.0 | 0.00 | 0.00 | 0.00 | 60 | 1015.8 |
| 20260901145100 | 83 | 60 | 1.0 | 4.0 | 0.00 | 0.00 | 0.00 | 62 | 1015.8 |
| 20260901144606 | 83 | 60 | 2.0 | 4.0 | 0.00 | 0.00 | 0.00 | 62 | 1015.8 |
| 20260901144102 | 82 | 60 | 1.0 | 4.0 | 0.00 | 0.00 | 0.00 | 63 | 1015.8 |
| 20260901143558 | 82 | 53 | 2.0 | 6.0 | 0.00 | 0.00 | 0.00 | 63 | 1015.8 |
| 20260901143121 | 81 | 78 | 1.0 | 6.0 | 0.00 | 0.00 | 0.00 | 64 | 1015.8 |
| 20260901142558 | 81 | 50 | 3.0 | 6.0 | 0.00 | 0.00 | 0.00 | 64 | 1015.8 |
| 20260901142058 | 81 | 65 | 1.0 | 6.0 | 0.00 | 0.00 | 0.00 | 65 | 1015.8 |
| 20260901141614 | 80 | 0 | 0.0 | 3.0 | 0.00 | 0.00 | 0.00 | 68 | 1015.8 |
| 20260901141058 | 80 | 69 | 1.0 | 3.0 | 0.00 | 0.00 | 0.00 | 69 | 1015.8 |
| 20260901140559 | 79 | 60 | 2.0 | 3.0 | 0.00 | 0.00 | 0.00 | 70 | 1015.7 |
| 20260901135559 | 79 | 0 | 0.0 | 0.0 | 0.00 | 0.00 | 0.00 | 72 | 1015.6 |
| 20260901135102 | 78 | 0 | 0.0 | 0.0 | 0.00 | 0.00 | 0.00 | 73 | 1015.6 |
| 20260901134606 | 78 | 0 | 0.0 | 0.0 | 0.00 | 0.00 | 0.00 | 75 | 1015.6 |
| 20260901134100 | 77 | 0 | 0.0 | 0.0 | 0.00 | 0.00 | 0.00 | 75 | 1015.6 |
| 20260901133559 | 76 | 0 | 0.0 | 0.0 | 0.00 | 0.00 | 0.00 | 77 | 1015.7 |
| 20260901133106 | 76 | 0 | 0.0 | 0.0 | 0.00 | 0.00 | 0.00 | 78 | 1015.6 |
| 20260901132603 | 75 | 0 | 0.0 | 0.0 | 0.00 | 0.00 | 0.00 | 79 | 1015.5 |
| 20260901132059 | 75 | 0 | 0.0 | 0.0 | 0.00 | 0.00 | 0.00 | 79 | 1015.5 |
| 20260901131601 | 75 | 0 | 0.0 | 0.0 | 0.00 | 0.00 | 0.00 | 78 | 1015.5 |
| 20260901131059 | 75 | 0 | 0.0 | 2.0 | 0.00 | 0.00 | 0.00 | 78 | 1015.4 |
| 20260901130600 | 75 | 0 | 0.0 | 2.0 | 0.00 | 0.00 | 0.00 | 78 | 1015.4 |
| 20260901130107 | 75 | 65 | 0.0 | 2.0 | 0.00 | 0.00 | 0.00 | 78 | 1015.3 |
| 20260901125602 | 75 | 0 | 1.0 | 2.0 | 0.00 | 0.00 | 0.00 | 78 | 1015.4 |
| 20260901125059 | 75 | 78 | 0.0 | 0.0 | 0.00 | 0.00 | 0.00 | 78 | 1015.3 |
| 20260901124605 | 75 | 0 | 0.0 | 0.0 | 0.00 | 0.00 | 0.00 | 78 | 1015.3 |
| 20260901124058 | 75 | 0 | 0.0 | 0.0 | 0.00 | 0.00 | 0.00 | 78 | 1015.3 |
| 20260901123558 | 75 | 0 | 0.0 | 0.0 | 0.00 | 0.00 | 0.00 | 77 | 1015.2 |
| 20260901123105 | 75 | 0 | 0.0 | 0.0 | 0.00 | 0.00 | 0.00 | 77 | 1015.2 |
| 20260901122557 | 75 | 0 | 0.0 | 0.0 | 0.00 | 0.00 | 0.00 | 76 | 1015.1 |
| 20260901122119 | 76 | 0 | 0.0 | 0.0 | 0.00 | 0.00 | 0.00 | 76 | 1015.1 |
| 20260901121605 | 76 | 0 | 0.0 | 0.0 | 0.00 | 0.00 | 0.00 | 76 | 1015.2 |
| 20260901121059 | 76 | 0 | 0.0 | 0.0 | 0.00 | 0.00 | 0.00 | 75 | 1015.2 |
| 20260901120558 | 76 | 0 | 0.0 | 0.0 | 0.00 | 0.00 | 0.00 | 74 | 1015.2 |
| 20260901120110 | 76 | 0 | 0.0 | 0.0 | 0.00 | 0.00 | 0.00 | 73 | 1015.1 |
| 20260901115559 | 76 | 0 | 0.0 | 0.0 | 0.00 | 0.00 | 0.00 | 73 | 1015.1 |
| 20260901115103 | 76 | 0 | 0.0 | 0.0 | 0.00 | 0.00 | 0.00 | 72 | 1015.0 |
| 20260901114605 | 77 | 0 | 0.0 | 0.0 | 0.00 | 0.00 | 0.00 | 72 | 1015.0 |
| 20260901114101 | 77 | 0 | 0.0 | 0.0 | 0.00 | 0.00 | 0.00 | 71 | 1014.9 |
| 20260901113602 | 77 | 0 | 0.0 | 0.0 | 0.00 | 0.00 | 0.00 | 70 | 1014.9 |
| 20260901113104 | 77 | 0 | 0.0 | 0.0 | 0.00 | 0.00 | 0.00 | 70 | 1014.9 |
| 20260901112558 | 77 | 0 | 0.0 | 0.0 | 0.00 | 0.00 | 0.00 | 70 | 1014.7 |
| 20260901112104 | 77 | 0 | 0.0 | 0.0 | 0.00 | 0.00 | 0.00 | 70 | 1014.7 |
| 20260901111607 | 77 | 0 | 0.0 | 0.0 | 0.00 | 0.00 | 0.00 | 70 | 1014.7 |
| 20260901111058 | 77 | 0 | 0.0 | 0.0 | 0.00 | 0.00 | 0.00 | 70 | 1014.7 |
| 20260901110558 | 77 | 0 | 0.0 | 0.0 | 0.00 | 0.00 | 0.00 | 70 | 1014.6 |
| 20260901110103 | 77 | 0 | 0.0 | 0.0 | 0.00 | 0.00 | 0.00 | 69 | 1014.7 |
| 20260901105559 | 77 | 0 | 0.0 | 0.0 | 0.00 | 0.00 | 0.00 | 70 | 1014.7 |
| 20260901105058 | 77 | 0 | 0.0 | 0.0 | 0.00 | 0.00 | 0.00 | 70 | 1014.8 |
| 20260901104605 | 77 | 0 | 0.0 | 2.0 | 0.00 | 0.00 | 0.00 | 70 | 1014.7 |
| 20260901104059 | 77 | 0 | 0.0 | 2.0 | 0.00 | 0.00 | 0.00 | 70 | 1014.7 |
| 20260901103600 | 77 | 68 | 0.0 | 2.0 | 0.00 | 0.00 | 0.00 | 70 | 1014.7 |
| 20260901103102 | 77 | 53 | 0.0 | 2.0 | 0.00 | 0.00 | 0.00 | 69 | 1014.8 |
| 20260901102559 | 78 | 53 | 1.0 | 2.0 | 0.00 | 0.00 | 0.00 | 69 | 1014.9 |
| 20260901102059 | 78 | 51 | 1.0 | 2.0 | 0.00 | 0.00 | 0.00 | 69 | 1014.8 |
| 20260901101612 | 78 | 67 | 1.0 | 2.0 | 0.00 | 0.00 | 0.00 | 69 | 1014.9 |
| 20260901101058 | 78 | 0 | 0.0 | 0.0 | 0.00 | 0.00 | 0.00 | 69 | 1014.9 |
| 20260901100559 | 78 | 0 | 0.0 | 0.0 | 0.00 | 0.00 | 0.00 | 69 | 1015.0 |
| 20260901100111 | 78 | 0 | 0.0 | 0.0 | 0.00 | 0.00 | 0.00 | 68 | 1015.0 |
| 20260901095558 | 78 | 0 | 0.0 | 0.0 | 0.00 | 0.00 | 0.00 | 68 | 1014.9 |
| 20260901095058 | 78 | 0 | 0.0 | 0.0 | 0.00 | 0.00 | 0.00 | 68 | 1014.7 |
| 20260901094602 | 78 | 0 | 0.0 | 2.0 | 0.00 | 0.00 | 0.00 | 69 | 1014.7 |
| 20260901094059 | 78 | 0 | 0.0 | 4.0 | 0.00 | 0.00 | 0.00 | 69 | 1014.7 |
| 20260901093558 | 78 | 66 | 1.0 | 4.0 | 0.00 | 0.00 | 0.00 | 69 | 1014.6 |
| 20260901093108 | 78 | 58 | 2.0 | 4.0 | 0.00 | 0.00 | 0.00 | 69 | 1014.7 |
| 20260901092559 | 78 | 65 | 2.0 | 4.0 | 0.00 | 0.00 | 0.00 | 69 | 1014.8 |
| 20260901092059 | 78 | 68 | 2.0 | 3.0 | 0.00 | 0.00 | 0.00 | 69 | 1014.9 |
| 20260901091607 | 78 | 63 | 2.0 | 3.0 | 0.00 | 0.00 | 0.00 | 69 | 1014.9 |
| 20260901091059 | 78 | 69 | 0.0 | 2.0 | 0.00 | 0.00 | 0.00 | 69 | 1014.9 |
| 20260901090558 | 78 | 54 | 0.0 | 2.0 | 0.00 | 0.00 | 0.00 | 69 | 1015.0 |
| 20260901090105 | 78 | 53 | 1.0 | 3.0 | 0.00 | 0.00 | 0.00 | 69 | 1015.0 |
| 20260901085559 | 79 | 48 | 1.0 | 4.0 | 0.00 | 0.00 | 0.00 | 69 | 1015.0 |
| 20260901085059 | 79 | 64 | 2.0 | 4.0 | 0.00 | 0.00 | 0.00 | 69 | 1015.0 |
| 20260901084623 | 79 | 56 | 2.0 | 5.0 | 0.00 | 0.00 | 0.00 | 69 | 1015.0 |
| 20260901084059 | 79 | 65 | 2.0 | 5.0 | 0.00 | 0.00 | 0.00 | 69 | 1015.0 |
| 20260901083559 | 79 | 59 | 3.0 | 5.0 | 0.00 | 0.00 | 0.00 | 69 | 1015.0 |
| 20260901083107 | 79 | 54 | 2.0 | 4.0 | 0.00 | 0.00 | 0.00 | 70 | 1015.0 |
| 20260901082559 | 79 | 56 | 1.0 | 3.0 | 0.00 | 0.00 | 0.00 | 70 | 1015.0 |
| 20260901082058 | 79 | 54 | 1.0 | 3.0 | 0.00 | 0.00 | 0.00 | 70 | 1015.0 |
| 20260901081611 | 79 | 61 | 1.0 | 2.0 | 0.00 | 0.00 | 0.00 | 70 | 1015.0 |
| 20260901081059 | 79 | 73 | 0.0 | 2.0 | 0.00 | 0.00 | 0.00 | 70 | 1015.0 |
| 20260901080559 | 79 | 0 | 1.0 | 2.0 | 0.00 | 0.00 | 0.00 | 69 | 1015.1 |
| 20260901080115 | 79 | 75 | 1.0 | 2.0 | 0.00 | 0.00 | 0.00 | 70 | 1015.1 |
| 20260901075559 | 79 | 0 | 0.0 | 2.0 | 0.00 | 0.00 | 0.00 | 70 | 1015.1 |
| 20260901075101 | 79 | 68 | 0.0 | 2.0 | 0.00 | 0.00 | 0.00 | 70 | 1015.1 |
| 20260901074628 | 79 | 0 | 0.0 | 3.0 | 0.00 | 0.00 | 0.00 | 69 | 1015.1 |
| 20260901074058 | 79 | 0 | 0.0 | 3.0 | 0.00 | 0.00 | 0.00 | 69 | 1015.1 |
| 20260901073558 | 79 | 339 | 0.0 | 2.0 | 0.00 | 0.00 | 0.00 | 69 | 1015.1 |
| 20260901073108 | 79 | 0 | 0.0 | 2.0 | 0.00 | 0.00 | 0.00 | 68 | 1015.1 |
| 20260901072602 | 79 | 58 | 0.0 | 3.0 | 0.00 | 0.00 | 0.00 | 67 | 1015.0 |
| 20260901072058 | 80 | 58 | 1.0 | 3.0 | 0.00 | 0.00 | 0.00 | 66 | 1015.0 |
| 20260901071609 | 80 | 58 | 1.0 | 3.0 | 0.00 | 0.00 | 0.00 | 66 | 1015.0 |
| 20260901071058 | 80 | 28 | 0.0 | 1.0 | 0.00 | 0.00 | 0.00 | 66 | 1015.0 |
| 20260901070558 | 80 | 0 | 0.0 | 1.0 | 0.00 | 0.00 | 0.00 | 65 | 1014.9 |
| 20260901070107 | 80 | 0 | 0.0 | 2.0 | 0.00 | 0.00 | 0.00 | 64 | 1014.9 |
| 20260901065600 | 80 | 78 | 1.0 | 2.0 | 0.00 | 0.06 | 0.00 | 63 | 1014.9 |
| 20260901065058 | 80 | 108 | 0.0 | 0.0 | 0.00 | 0.06 | 0.00 | 63 | 1014.7 |
| 20260901064604 | 80 | 0 | 0.0 | 0.0 | 0.00 | 0.06 | 0.00 | 63 | 1014.7 |
| 20260901064102 | 80 | 0 | 0.0 | 0.0 | 0.00 | 0.06 | 0.00 | 63 | 1014.7 |
| 20260901063601 | 80 | 0 | 0.0 | 0.0 | 0.00 | 0.06 | 0.00 | 64 | 1014.7 |
| 20260901063105 | 80 | 0 | 0.0 | 0.0 | 0.00 | 0.06 | 0.00 | 63 | 1014.7 |
| 20260901062600 | 80 | 0 | 0.0 | 0.0 | 0.00 | 0.06 | 0.00 | 63 | 1014.7 |
| 20260901062101 | 80 | 0 | 0.0 | 0.0 | 0.00 | 0.06 | 0.00 | 62 | 1014.6 |
| 20260901061610 | 80 | 0 | 0.0 | 0.0 | 0.00 | 0.06 | 0.00 | 62 | 1014.6 |
| 20260901061059 | 80 | 0 | 0.0 | 0.0 | 0.00 | 0.06 | 0.00 | 62 | 1014.7 |
| 20260901060559 | 80 | 0 | 0.0 | 0.0 | 0.00 | 0.06 | 0.00 | 63 | 1014.7 |
| 20260901060109 | 80 | 0 | 0.0 | 0.0 | 0.00 | 0.06 | 0.00 | 63 | 1014.6 |
| 20260901055559 | 80 | 0 | 0.0 | 0.0 | 0.00 | 0.09 | 0.00 | 61 | 1014.7 |
| 20260901055059 | 80 | 0 | 0.0 | 0.0 | 0.00 | 0.09 | 0.00 | 61 | 1014.7 |
| 20260901054605 | 80 | 0 | 0.0 | 0.0 | 0.00 | 0.09 | 0.00 | 62 | 1014.6 |
| 20260901054103 | 80 | 0 | 0.0 | 0.0 | 0.00 | 0.09 | 0.00 | 62 | 1014.6 |
| 20260901053603 | 80 | 0 | 0.0 | 0.0 | 0.00 | 0.09 | 0.00 | 63 | 1014.6 |
| 20260901053114 | 81 | 0 | 0.0 | 0.0 | 0.00 | 0.09 | 0.00 | 61 | 1014.6 |
| 20260901052559 | 81 | 0 | 0.0 | 0.0 | 0.00 | 0.09 | 0.00 | 60 | 1014.5 |
| 20260901052059 | 82 | 0 | 0.0 | 2.0 | 0.00 | 0.09 | 0.00 | 60 | 1014.4 |
| 20260901051610 | 82 | 0 | 0.0 | 2.0 | 0.00 | 0.09 | 0.00 | 59 | 1014.3 |
| 20260901051059 | 82 | 122 | 0.0 | 1.0 | 0.00 | 0.09 | 0.00 | 59 | 1014.4 |
| 20260901050559 | 82 | 0 | 0.0 | 1.0 | 0.00 | 0.09 | 0.00 | 59 | 1014.4 |
| 20260901050108 | 82 | 88 | 0.0 | 1.0 | 0.00 | 0.09 | 0.00 | 59 | 1014.3 |
| 20260901045558 | 82 | 86 | 0.0 | 2.0 | 0.00 | 0.11 | 0.00 | 58 | 1014.3 |
| 20260901045058 | 83 | 86 | 0.0 | 2.0 | 0.00 | 0.11 | 0.00 | 58 | 1014.3 |
| 20260901044607 | 83 | 129 | 0.0 | 2.0 | 0.00 | 0.11 | 0.00 | 58 | 1014.3 |
| 20260901044059 | 83 | 0 | 0.0 | 2.0 | 0.00 | 0.11 | 0.00 | 58 | 1014.2 |
| 20260901043559 | 83 | 134 | 0.0 | 3.0 | 0.00 | 0.11 | 0.00 | 57 | 1014.2 |
| 20260901043109 | 83 | 115 | 0.0 | 3.0 | 0.00 | 0.11 | 0.00 | 57 | 1014.2 |
| 20260901042600 | 83 | 126 | 2.0 | 5.0 | 0.00 | 0.11 | 0.00 | 57 | 1014.2 |
| 20260901042059 | 84 | 136 | 1.0 | 5.0 | 0.00 | 0.11 | 0.00 | 57 | 1014.2 |
| 20260901041622 | 84 | 139 | 1.0 | 5.0 | 0.00 | 0.11 | 0.00 | 57 | 1014.3 |
| 20260901041102 | 84 | 121 | 2.0 | 6.0 | 0.00 | 0.11 | 0.00 | 58 | 1014.3 |
| 20260901040559 | 84 | 133 | 3.0 | 7.0 | 0.00 | 0.11 | 0.00 | 57 | 1014.2 |
| 20260901040139 | 84 | 127 | 4.0 | 7.0 | 0.00 | 0.11 | 0.00 | 57 | 1014.1 |
| 20260901035601 | 85 | 136 | 3.0 | 7.0 | 0.00 | 0.11 | 0.00 | 57 | 1014.0 |
| 20260901035058 | 85 | 127 | 4.0 | 7.0 | 0.00 | 0.11 | 0.00 | 56 | 1013.9 |
| 20260901034611 | 85 | 115 | 4.0 | 6.0 | 0.00 | 0.11 | 0.00 | 54 | 1014.0 |
| 20260901034101 | 85 | 128 | 3.0 | 6.0 | 0.00 | 0.11 | 0.00 | 52 | 1013.9 |
| 20260901033558 | 85 | 103 | 3.0 | 6.0 | 0.00 | 0.11 | 0.00 | 52 | 1013.9 |
| 20260901033110 | 85 | 141 | 2.0 | 6.0 | 0.00 | 0.11 | 0.00 | 52 | 1013.9 |
| 20260901032601 | 85 | 120 | 2.0 | 6.0 | 0.00 | 0.11 | 0.00 | 52 | 1013.8 |
| 20260901032102 | 85 | 139 | 3.0 | 7.0 | 0.00 | 0.11 | 0.00 | 51 | 1013.6 |
| 20260901031604 | 86 | 134 | 2.0 | 7.0 | 0.00 | 0.11 | 0.00 | 51 | 1013.5 |
| 20260901031059 | 86 | 108 | 3.0 | 7.0 | 0.00 | 0.11 | 0.00 | 51 | 1013.4 |
| 20260901030559 | 86 | 123 | 3.0 | 6.0 | 0.00 | 0.11 | 0.00 | 51 | 1013.3 |
| 20260901030111 | 86 | 139 | 3.0 | 6.0 | 0.00 | 0.11 | 0.00 | 51 | 1013.3 |
| 20260901025559 | 86 | 123 | 3.0 | 5.0 | 0.00 | 0.11 | 0.00 | 51 | 1013.1 |
| 20260901025103 | 86 | 142 | 2.0 | 4.0 | 0.00 | 0.11 | 0.00 | 52 | 1013.0 |
| 20260901024607 | 86 | 122 | 2.0 | 4.0 | 0.00 | 0.11 | 0.00 | 52 | 1012.8 |
| 20260901024058 | 86 | 129 | 2.0 | 4.0 | 0.00 | 0.11 | 0.00 | 52 | 1012.7 |
| 20260901023558 | 86 | 158 | 2.0 | 4.0 | 0.00 | 0.11 | 0.00 | 52 | 1012.6 |
| 20260901023107 | 86 | 146 | 1.0 | 3.0 | 0.00 | 0.11 | 0.00 | 54 | 1012.7 |
| 20260901022559 | 86 | 121 | 1.0 | 5.0 | 0.00 | 0.11 | 0.00 | 53 | 1012.8 |
| 20260901022059 | 86 | 143 | 1.0 | 6.0 | 0.00 | 0.11 | 0.00 | 53 | 1012.7 |
| 20260901021606 | 86 | 136 | 2.0 | 6.0 | 0.00 | 0.11 | 0.00 | 53 | 1012.7 |
| 20260901021059 | 86 | 101 | 4.0 | 6.0 | 0.00 | 0.11 | 0.00 | 53 | 1012.9 |
| 20260901020559 | 86 | 133 | 3.0 | 5.0 | 0.00 | 0.11 | 0.00 | 53 | 1013.0 |
| 20260901020111 | 86 | 140 | 3.0 | 5.0 | 0.00 | 0.11 | 0.00 | 53 | 1013.0 |
| 20260901015559 | 86 | 124 | 2.0 | 6.0 | 0.00 | 0.11 | 0.00 | 52 | 1013.0 |
| 20260901015059 | 86 | 139 | 3.0 | 6.0 | 0.00 | 0.11 | 0.00 | 52 | 1013.0 |
| 20260901014603 | 87 | 103 | 2.0 | 7.0 | 0.00 | 0.11 | 0.00 | 51 | 1013.2 |
| 20260901014059 | 87 | 91 | 2.0 | 7.0 | 0.00 | 0.11 | 0.00 | 52 | 1013.2 |
| 20260901013559 | 87 | 143 | 3.0 | 7.0 | 0.00 | 0.11 | 0.00 | 52 | 1013.0 |
| 20260901013104 | 87 | 138 | 3.0 | 6.0 | 0.00 | 0.11 | 0.00 | 52 | 1013.0 |
| 20260901012600 | 87 | 179 | 2.0 | 6.0 | 0.00 | 0.11 | 0.00 | 52 | 1013.2 |
| 20260901012101 | 87 | 113 | 2.0 | 5.0 | 0.00 | 0.11 | 0.00 | 53 | 1013.0 |
| 20260901011603 | 87 | 89 | 3.0 | 5.0 | 0.00 | 0.11 | 0.00 | 52 | 1013.0 |
| 20260901011059 | 87 | 165 | 1.0 | 4.0 | 0.00 | 0.11 | 0.00 | 52 | 1013.1 |
| 20260901010559 | 87 | 141 | 2.0 | 4.0 | 0.00 | 0.11 | 0.00 | 52 | 1013.2 |
| 20260901010116 | 87 | 129 | 3.0 | 7.0 | 0.00 | 0.11 | 0.00 | 52 | 1013.3 |
| 20260901005559 | 87 | 126 | 3.0 | 7.0 | 0.00 | 0.11 | 0.00 | 52 | 1013.3 |
| 20260901005058 | 87 | 123 | 4.0 | 7.0 | 0.00 | 0.11 | 0.00 | 52 | 1013.4 |
| 20260901004603 | 87 | 148 | 2.0 | 5.0 | 0.00 | 0.11 | 0.00 | 52 | 1013.3 |
| 20260901004059 | 87 | 119 | 1.0 | 7.0 | 0.00 | 0.11 | 0.00 | 52 | 1013.0 |
| 20260901003559 | 87 | 86 | 3.0 | 7.0 | 0.00 | 0.11 | 0.00 | 52 | 1013.1 |
| 20260901003110 | 87 | 129 | 4.0 | 7.0 | 0.00 | 0.11 | 0.00 | 52 | 1012.8 |